Boone, NC

9:50 AM EDT on August 25, 2016 (GMT -0400)
Boone

Weather History for KTNB - January, 2013

Change the Weather History Date:

Sunday, January 20, 2013

  Actual Average (KGEV) Record (KGEV)
Temperature  
Mean Temperature 40 °F -  
Max Temperature 45 °F 41 °F 62 °F (1988)
Min Temperature 35 °F 22 °F -11 °F (1985)
Degree Days  
Heating Degree Days 25    
Moisture  
Dew Point 25 °F    
Average Humidity 58    
Maximum Humidity 73    
Minimum Humidity 45    
Precipitation  
Precipitation 0.01 in - - ()
Sea Level Pressure  
Sea Level Pressure 30.05 in    
Wind  
Wind Speed 18 mph (WNW)    
Max Wind Speed 31 mph    
Max Gust Speed 41 mph    
Visibility 10 miles    
Events      
Averages and records for this station are not official NWS values.
T = Trace of Precipitation, MM = Missing Value Source: NWS Daily Summary

Daily Weather History Graph

Daily Weather History Graph

Search for Another Location

Airport or City:

Trip Planner

Search our weather history database for the weather conditions in past years. The results will help you decide how hot, cold, wet, or windy it might be!

Date:

Astronomy

Jan. 20, 2013 Rise Set
Actual Time 7:34 AM EST 5:40 PM EST
Civil Twilight 7:07 AM EST 6:08 PM EST
Nautical Twilight 6:35 AM EST 6:39 PM EST
Astronomical Twilight 6:05 AM EST 7:10 PM EST
Moon 12:40 PM EST (1/20) 2:07 AM EST (1/20)
Length of Visible Light 11h 01m
Length of Day
10h 05m
Waxing Gibbous, 66% of the Moon is Illuminated
Jan 20
Waxing Gibbous
Jan 26
Full
Feb 3
Last Quarter
Feb 10
New
Feb 17
First Quarter

Hourly Weather History & Observations

Time (EST) Temp. Windchill Dew Point Humidity Pressure Visibility Wind Dir Wind Speed Gust Speed Precip Events Conditions
12:15 AM 36.5 °F 29.7 °F 23.2 °F 59% 30.09 in 10.0 mi West 9.2 mph 17.3 mph N/A   Clear
12:35 AM 36.9 °F 27.5 °F 23.0 °F 57% 30.08 in 10.0 mi West 16.1 mph 19.6 mph N/A   Clear
12:55 AM 36.7 °F 28.0 °F 22.3 °F 56% 30.08 in 10.0 mi West 13.8 mph 20.7 mph N/A   Clear
1:15 AM 37.0 °F 27.7 °F 21.4 °F 53% 30.07 in 10.0 mi West 16.1 mph 24.2 mph N/A   Clear
1:35 AM 37.2 °F 27.0 °F 20.5 °F 51% 30.07 in 10.0 mi West 19.6 mph 25.3 mph N/A   Clear
1:55 AM 37.4 °F 27.2 °F 20.3 °F 50% 30.07 in 10.0 mi West 19.6 mph 26.5 mph N/A   Clear
2:15 AM 37.4 °F 27.8 °F 20.3 °F 50% 30.06 in 10.0 mi West 17.3 mph 26.5 mph N/A   Clear
2:35 AM 36.9 °F 27.5 °F 20.1 °F 51% 30.06 in 10.0 mi West 16.1 mph 25.3 mph N/A   Clear
2:55 AM 37.0 °F 26.4 °F 18.5 °F 47% 30.05 in 10.0 mi WNW 20.7 mph 31.1 mph 0.01 in   Clear
3:15 AM 37.4 °F 27.2 °F 18.0 °F 45% 30.05 in 10.0 mi WNW 19.6 mph 28.8 mph N/A   Clear
3:55 AM 37.6 °F 25.0 °F 18.1 °F 45% 30.04 in 10.0 mi WNW 31.1 mph 41.4 mph N/A   Clear
4:15 AM 37.4 °F 25.6 °F 18.7 °F 47% 30.03 in 10.0 mi WNW 26.5 mph 39.1 mph N/A   Clear
4:35 AM 36.9 °F 25.1 °F 19.4 °F 49% 30.03 in 10.0 mi WNW 25.3 mph 35.7 mph N/A   Clear
4:55 AM 36.5 °F 24.9 °F 20.1 °F 52% 30.03 in 10.0 mi WNW 24.2 mph 35.7 mph N/A   Clear
5:15 AM 36.7 °F 24.9 °F 20.8 °F 53% 30.03 in 10.0 mi WNW 25.3 mph 34.5 mph N/A   Clear
5:35 AM 36.7 °F 24.4 °F 21.2 °F 54% 30.03 in 10.0 mi WNW 27.6 mph 35.7 mph N/A   Clear
5:55 AM 36.5 °F 23.5 °F 21.9 °F 56% 30.03 in 10.0 mi WNW 31.1 mph 39.1 mph N/A   Clear
6:15 AM 36.5 °F 25.2 °F 22.5 °F 57% 30.03 in 10.0 mi WNW 23.0 mph 36.8 mph N/A   Clear
6:35 AM 36.5 °F 25.2 °F 23.0 °F 58% 30.04 in 10.0 mi WNW 23.0 mph 32.2 mph N/A   Clear
6:55 AM 36.5 °F 24.9 °F 23.7 °F 60% 30.04 in 10.0 mi WNW 24.2 mph 33.4 mph N/A   Clear
7:15 AM 36.5 °F 25.2 °F 24.3 °F 61% 30.04 in 10.0 mi West 23.0 mph 36.8 mph N/A   Clear
7:35 AM 36.0 °F 24.4 °F 24.8 °F 64% 30.03 in 10.0 mi WNW 23.0 mph 36.8 mph N/A   Clear
7:55 AM 35.8 °F 24.5 °F 25.2 °F 65% 30.03 in 10.0 mi WNW 21.9 mph 32.2 mph N/A   Clear
8:15 AM 35.6 °F 23.7 °F 25.5 °F 67% 30.04 in 10.0 mi WNW 24.2 mph 32.2 mph N/A   Clear
8:35 AM 36.0 °F 23.7 °F 26.1 °F 67% 30.05 in 10.0 mi WNW 26.5 mph 38.0 mph N/A   Clear
8:55 AM 36.5 °F 24.7 °F 26.4 °F 67% 30.05 in 10.0 mi WNW 25.3 mph 32.2 mph N/A   Clear
9:15 AM 37.2 °F 26.7 °F 26.8 °F 66% 30.06 in 10.0 mi WNW 20.7 mph 32.2 mph N/A   Clear
9:35 AM 37.8 °F 27.7 °F 27.3 °F 66% 30.07 in 10.0 mi WNW 19.6 mph 33.4 mph N/A   Clear
9:55 AM 38.3 °F 28.4 °F 27.3 °F 65% 30.07 in 10.0 mi WNW 19.6 mph 34.5 mph N/A   Clear
10:15 AM 39.0 °F 29.3 °F 27.9 °F 64% 30.07 in 10.0 mi West 19.6 mph 28.8 mph N/A   Clear
10:35 AM 40.1 °F 31.0 °F 28.0 °F 62% 30.08 in 10.0 mi WNW 18.4 mph 28.8 mph N/A   Clear
10:55 AM 40.3 °F 31.0 °F 27.9 °F 61% 30.08 in 10.0 mi West 19.6 mph 33.4 mph N/A   Clear
11:15 AM 41.0 °F 30.9 °F 28.2 °F 60% 30.07 in 10.0 mi WNW 24.2 mph 32.2 mph N/A   Clear
11:35 AM 41.4 °F 31.2 °F 28.2 °F 60% 30.07 in 10.0 mi WNW 25.3 mph 33.4 mph N/A   Clear
11:55 AM 42.4 °F 33.3 °F 28.6 °F 58% 30.06 in 10.0 mi WNW 21.9 mph 32.2 mph N/A   Clear
12:15 PM 42.1 °F 32.3 °F 28.6 °F 59% 30.06 in 10.0 mi NW 24.2 mph 29.9 mph N/A   Clear
12:35 PM 42.8 °F 33.5 °F 28.6 °F 57% 30.05 in 10.0 mi WNW 23.0 mph 27.6 mph N/A   Clear
12:55 PM 43.2 °F 34.7 °F 28.4 °F 56% 30.04 in 10.0 mi West 19.6 mph 25.3 mph N/A   Clear
1:15 PM 43.9 °F 35.9 °F 28.0 °F 54% 30.04 in 10.0 mi WNW 18.4 mph 25.3 mph N/A   Clear
1:35 PM 44.2 °F 37.3 °F 27.9 °F 53% 30.04 in 10.0 mi West 15.0 mph 25.3 mph N/A   Clear
1:55 PM 44.6 °F 36.9 °F 27.0 °F 50% 30.04 in 10.0 mi West 18.4 mph 25.3 mph N/A   Clear
2:15 PM 44.6 °F 38.1 °F 26.2 °F 49% 30.03 in 10.0 mi WNW 13.8 mph 24.2 mph N/A   Clear
2:35 PM 44.6 °F 36.4 °F 25.3 °F 47% 30.03 in 10.0 mi West 20.7 mph 29.9 mph N/A   Clear
2:55 PM 45.5 °F 39.6 °F 26.2 °F 47% 30.03 in 10.0 mi WNW 12.7 mph 19.6 mph N/A   Clear
3:15 PM 44.6 °F 38.4 °F 24.8 °F 46% 30.03 in 10.0 mi WNW 12.7 mph 21.9 mph N/A   Clear
3:35 PM 43.7 °F 36.3 °F 24.6 °F 47% 30.04 in 10.0 mi NW 16.1 mph 26.5 mph N/A   Clear
3:55 PM 43.7 °F 35.7 °F 24.6 °F 47% 30.04 in 10.0 mi NW 18.4 mph 25.3 mph N/A   Clear
4:15 PM 42.8 °F 34.5 °F 23.7 °F 47% 30.04 in 10.0 mi WNW 18.4 mph 26.5 mph N/A   Clear
4:35 PM 42.1 °F 33.3 °F 23.9 °F 49% 30.04 in 10.0 mi NW 19.6 mph 28.8 mph N/A   Clear
4:55 PM 41.7 °F 33.4 °F 24.1 °F 50% 30.05 in 10.0 mi WNW 17.3 mph 24.2 mph N/A   Clear
5:15 PM 41.0 °F 31.4 °F 24.4 °F 52% 30.05 in 10.0 mi WNW 21.9 mph 27.6 mph N/A   Clear
5:35 PM 40.3 °F 31.9 °F 25.0 °F 54% 30.06 in 10.0 mi WNW 16.1 mph 21.9 mph N/A   Clear
5:55 PM 39.6 °F 31.7 °F 24.8 °F 56% 30.06 in 10.0 mi WNW 13.8 mph 20.7 mph N/A   Clear
6:15 PM 39.2 °F 31.2 °F 25.3 °F 58% 30.06 in 10.0 mi WNW 13.8 mph 18.4 mph N/A   Clear
6:35 PM 38.5 °F 31.1 °F 25.7 °F 60% 30.06 in 10.0 mi WNW 11.5 mph 17.3 mph N/A   Clear
6:55 PM 38.5 °F 31.1 °F 25.9 °F 61% 30.07 in 10.0 mi WNW 11.5 mph 19.6 mph N/A   Clear
7:15 PM 37.8 °F 30.7 °F 26.4 °F 64% 30.07 in 10.0 mi WNW 10.4 mph 19.6 mph N/A   Clear
7:35 PM 37.6 °F 29.6 °F 26.6 °F 65% 30.06 in 10.0 mi WNW 12.7 mph 17.3 mph N/A   Clear
7:55 PM 37.6 °F 31.0 °F 27.0 °F 66% 30.07 in 10.0 mi WNW 9.2 mph - N/A   Clear
8:15 PM 37.4 °F 29.3 °F 27.3 °F 67% 30.07 in 10.0 mi WNW 12.7 mph 16.1 mph N/A   Clear
8:35 PM 37.4 °F 29.8 °F 27.5 °F 67% 30.07 in 10.0 mi WNW 11.5 mph 18.4 mph N/A   Clear
8:55 PM 36.9 °F 28.2 °F 27.5 °F 69% 30.07 in 10.0 mi WNW 13.8 mph - N/A   Clear
9:15 PM 36.9 °F 29.6 °F 27.5 °F 69% 30.06 in 10.0 mi West 10.4 mph - N/A   Clear
9:35 PM 36.9 °F 28.7 °F 27.5 °F 69% 30.06 in 10.0 mi West 12.7 mph 16.1 mph N/A   Clear
9:55 PM 36.9 °F 29.1 °F 27.9 °F 70% 30.06 in 10.0 mi WNW 11.5 mph - N/A   Clear
10:15 PM 36.7 °F 27.6 °F 28.0 °F 71% 30.05 in 10.0 mi West 15.0 mph 19.6 mph N/A   Clear
10:35 PM 36.5 °F 29.2 °F 28.2 °F 72% 30.05 in 10.0 mi WNW 10.4 mph - N/A   Clear
10:55 PM 36.5 °F 28.2 °F 28.4 °F 72% 30.05 in 10.0 mi WNW 12.7 mph 16.1 mph N/A   Clear
11:15 PM 36.1 °F 27.7 °F 28.4 °F 73% 30.04 in 10.0 mi West 12.7 mph - N/A   Clear
11:35 PM 36.1 °F 27.7 °F 28.2 °F 73% 30.04 in 10.0 mi West 12.7 mph - N/A   Clear
11:55 PM 36.5 °F 28.7 °F 28.2 °F 72% 30.04 in 10.0 mi WNW 11.5 mph 18.4 mph N/A   Clear